Time,TemperatureF,DewpointF,PressureIn,WindDirection,WindDirectionDegrees,WindSpeedMPH,WindSpeedGustMPH,Humidity,HourlyPrecipIn,Conditions,Clouds,dailyrainin,SolarRadiationWatts/m^2,SoftwareType,DateUTC
2013-08-04 00:02:00,67.0,55.0,-100.00,NNW,347,5.0,7.0,65,0.00,,,0.00,0.000000,,2013-08-04 07:02:00,
2013-08-04 00:12:00,67.0,55.0,-100.00,NNW,347,5.0,7.0,65,0.00,,,0.00,0.000000,,2013-08-04 07:12:00,
2013-08-04 00:43:00,66.0,55.0,-100.00,NNW,337,3.0,6.0,67,0.00,,,0.00,0.000000,,2013-08-04 07:43:00,
2013-08-04 00:53:00,66.0,55.0,-100.00,NNW,337,3.0,6.0,67,0.00,,,0.00,0.000000,,2013-08-04 07:53:00,
2013-08-04 01:02:00,66.0,55.0,-100.00,NNW,337,3.0,6.0,67,0.00,,,0.00,0.000000,,2013-08-04 08:02:00,
2013-08-04 01:11:00,66.0,55.0,-100.00,NNW,337,3.0,6.0,67,0.00,,,0.00,0.000000,,2013-08-04 08:11:00,
2013-08-04 01:43:00,64.0,55.0,-100.00,NNW,332,3.0,6.0,73,0.00,,,0.00,0.000000,,2013-08-04 08:43:00,
2013-08-04 01:53:00,64.0,55.0,-100.00,NNW,332,3.0,6.0,73,0.00,,,0.00,0.000000,,2013-08-04 08:53:00,
2013-08-04 02:02:00,64.0,55.0,-100.00,NNW,332,3.0,6.0,73,0.00,,,0.00,0.000000,,2013-08-04 09:02:00,
2013-08-04 02:12:00,64.0,55.0,-100.00,NNW,332,3.0,6.0,73,0.00,,,0.00,0.000000,,2013-08-04 09:12:00,
2013-08-04 02:32:00,63.0,55.0,-100.00,NW,314,3.0,5.0,76,0.00,,,0.00,0.000000,,2013-08-04 09:32:00,
2013-08-04 02:43:00,63.0,55.0,-100.00,NW,314,3.0,5.0,76,0.00,,,0.00,0.000000,,2013-08-04 09:43:00,
2013-08-04 02:52:00,63.0,55.0,-100.00,NW,314,3.0,5.0,76,0.00,,,0.00,0.000000,,2013-08-04 09:52:00,
2013-08-04 03:02:00,63.0,55.0,-100.00,NW,314,3.0,5.0,76,0.00,,,0.00,0.000000,,2013-08-04 10:02:00,
2013-08-04 03:12:00,63.0,55.0,-100.00,NW,314,3.0,5.0,76,0.00,,,0.00,0.000000,,2013-08-04 10:12:00,
2013-08-04 03:42:00,62.0,56.0,-100.00,NW,324,1.0,5.0,81,0.00,,,0.00,0.000000,,2013-08-04 10:42:00,
2013-08-04 03:53:00,62.0,56.0,-100.00,NW,324,1.0,5.0,81,0.00,,,0.00,0.000000,,2013-08-04 10:53:00,
2013-08-04 04:02:00,62.0,56.0,-100.00,NW,324,1.0,5.0,81,0.00,,,0.00,0.000000,,2013-08-04 11:02:00,
2013-08-04 04:12:00,62.0,56.0,-100.00,NW,324,1.0,5.0,81,0.00,,,0.00,0.000000,,2013-08-04 11:12:00,
2013-08-04 04:42:00,61.0,56.0,-100.00,NNW,332,3.0,4.0,83,0.00,,,0.00,0.000000,,2013-08-04 11:42:00,
2013-08-04 04:53:00,61.0,56.0,-100.00,NNW,332,3.0,4.0,83,0.00,,,0.00,0.000000,,2013-08-04 11:53:00,
2013-08-04 05:02:00,61.0,56.0,-100.00,NNW,332,3.0,4.0,83,0.00,,,0.00,0.000000,,2013-08-04 12:02:00,
2013-08-04 05:12:00,61.0,56.0,-100.00,NNW,332,3.0,4.0,83,0.00,,,0.00,0.000000,,2013-08-04 12:12:00,
2013-08-04 05:33:00,60.0,54.0,-100.00,NNW,330,4.0,6.0,80,0.00,,,0.00,0.000000,,2013-08-04 12:33:00,
2013-08-04 05:43:00,60.0,54.0,-100.00,NNW,330,4.0,6.0,80,0.00,,,0.00,0.000000,,2013-08-04 12:43:00,
2013-08-04 05:53:00,60.0,54.0,-100.00,NNW,330,4.0,6.0,80,0.00,,,0.00,0.000000,,2013-08-04 12:53:00,
2013-08-04 06:02:00,60.0,54.0,-100.00,NNW,330,4.0,6.0,80,0.00,,,0.00,0.000000,,2013-08-04 13:02:00,
2013-08-04 06:12:00,60.0,54.0,-100.00,NNW,330,4.0,6.0,80,0.00,,,0.00,0.000000,,2013-08-04 13:12:00,
2013-08-04 06:43:00,60.0,55.0,-100.00,NW,319,3.0,5.0,83,0.00,,,0.00,5.000000,,2013-08-04 13:43:00,
2013-08-04 06:52:00,60.0,55.0,-100.00,NW,319,3.0,5.0,83,0.00,,,0.00,5.000000,,2013-08-04 13:52:00,
2013-08-04 07:02:00,60.0,55.0,-100.00,NW,319,3.0,5.0,83,0.00,,,0.00,5.000000,,2013-08-04 14:02:00,
2013-08-04 07:12:00,60.0,55.0,-100.00,NW,319,3.0,5.0,83,0.00,,,0.00,5.000000,,2013-08-04 14:12:00,
2013-08-04 07:43:00,63.0,55.0,-100.00,NNW,339,3.0,4.0,75,0.00,,,0.00,51.000000,,2013-08-04 14:43:00,
2013-08-04 07:53:00,63.0,55.0,-100.00,NNW,339,3.0,4.0,75,0.00,,,0.00,51.000000,,2013-08-04 14:53:00,
2013-08-04 08:02:00,63.0,55.0,-100.00,NNW,339,3.0,4.0,75,0.00,,,0.00,51.000000,,2013-08-04 15:02:00,
2013-08-04 08:12:00,63.0,55.0,-100.00,NNW,339,3.0,4.0,75,0.00,,,0.00,51.000000,,2013-08-04 15:12:00,
2013-08-04 08:32:00,67.0,55.0,-100.00,NNW,348,2.0,4.0,66,0.00,,,0.00,201.000000,,2013-08-04 15:32:00,
2013-08-04 08:43:00,67.0,55.0,-100.00,NNW,348,2.0,4.0,66,0.00,,,0.00,201.000000,,2013-08-04 15:43:00,
2013-08-04 08:53:00,67.0,55.0,-100.00,NNW,348,2.0,4.0,66,0.00,,,0.00,201.000000,,2013-08-04 15:53:00,
2013-08-04 09:02:00,67.0,55.0,-100.00,NNW,348,2.0,4.0,66,0.00,,,0.00,201.000000,,2013-08-04 16:02:00,
2013-08-04 09:11:00,67.0,55.0,-100.00,NNW,348,2.0,4.0,66,0.00,,,0.00,201.000000,,2013-08-04 16:11:00,
2013-08-04 09:43:00,71.0,56.0,-100.00,SSE,164,4.0,6.0,60,0.00,,,0.00,370.000000,,2013-08-04 16:43:00,
2013-08-04 09:53:00,71.0,56.0,-100.00,SSE,164,4.0,6.0,60,0.00,,,0.00,370.000000,,2013-08-04 16:53:00,
2013-08-04 10:02:00,71.0,56.0,-100.00,SSE,164,4.0,6.0,60,0.00,,,0.00,370.000000,,2013-08-04 17:02:00,
2013-08-04 10:12:00,71.0,56.0,-100.00,SSE,164,4.0,6.0,60,0.00,,,0.00,370.000000,,2013-08-04 17:12:00,
2013-08-04 10:32:00,77.0,56.0,-100.00,SE,132,4.0,7.0,48,0.00,,,0.00,653.000000,,2013-08-04 17:32:00,
2013-08-04 10:43:00,77.0,56.0,-100.00,SE,132,4.0,7.0,48,0.00,,,0.00,653.000000,,2013-08-04 17:43:00,
2013-08-04 10:53:00,77.0,56.0,-100.00,SE,132,4.0,7.0,48,0.00,,,0.00,653.000000,,2013-08-04 17:53:00,
2013-08-04 11:02:00,77.0,56.0,-100.00,SE,132,4.0,7.0,48,0.00,,,0.00,653.000000,,2013-08-04 18:02:00,
2013-08-04 11:33:00,78.0,54.0,-100.00,East,98,5.0,10.0,44,0.00,,,0.00,812.000000,,2013-08-04 18:33:00,
2013-08-04 11:43:00,78.0,54.0,-100.00,East,98,5.0,10.0,44,0.00,,,0.00,812.000000,,2013-08-04 18:43:00,
2013-08-04 11:52:00,78.0,54.0,-100.00,East,98,5.0,10.0,44,0.00,,,0.00,812.000000,,2013-08-04 18:52:00,
2013-08-04 12:02:00,78.0,54.0,-100.00,East,98,5.0,10.0,44,0.00,,,0.00,812.000000,,2013-08-04 19:02:00,
2013-08-04 12:12:00,78.0,54.0,-100.00,East,98,5.0,10.0,44,0.00,,,0.00,812.000000,,2013-08-04 19:12:00,
2013-08-04 12:44:00,82.0,52.0,-100.00,SE,125,5.0,11.0,36,0.00,,,-99.99,919.000000,,2013-08-04 19:44:00,
2013-08-04 12:52:00,82.0,52.0,-100.00,SE,125,5.0,11.0,36,0.00,,,-99.99,919.000000,,2013-08-04 19:52:00,
2013-08-04 13:02:00,82.0,52.0,-100.00,SE,125,5.0,11.0,36,0.00,,,-99.99,919.000000,,2013-08-04 20:02:00,
2013-08-04 13:12:00,82.0,52.0,-100.00,SE,125,5.0,11.0,36,0.00,,,-99.99,919.000000,,2013-08-04 20:12:00,
2013-08-04 13:43:00,82.0,52.0,-100.00,ESE,111,4.0,9.0,36,0.00,,,0.00,963.000000,,2013-08-04 20:43:00,
2013-08-04 13:53:00,82.0,52.0,-100.00,ESE,111,4.0,9.0,36,0.00,,,0.00,963.000000,,2013-08-04 20:53:00,
2013-08-04 14:02:00,82.0,52.0,-100.00,ESE,111,4.0,9.0,36,0.00,,,0.00,963.000000,,2013-08-04 21:02:00,
2013-08-04 14:12:00,82.0,52.0,-100.00,ESE,111,4.0,9.0,36,0.00,,,0.00,963.000000,,2013-08-04 21:12:00,
2013-08-04 14:43:00,87.0,52.0,-100.00,SE,125,5.0,11.0,30,0.00,,,0.00,970.000000,,2013-08-04 21:43:00,
2013-08-04 14:53:00,87.0,52.0,-100.00,SE,125,5.0,11.0,30,0.00,,,0.00,970.000000,,2013-08-04 21:53:00,
2013-08-04 15:01:00,87.0,52.0,-100.00,SE,125,5.0,11.0,30,0.00,,,0.00,970.000000,,2013-08-04 22:01:00,
2013-08-04 15:11:00,87.0,52.0,-100.00,SE,125,5.0,11.0,30,0.00,,,0.00,970.000000,,2013-08-04 22:11:00,
2013-08-04 15:43:00,84.0,48.0,-100.00,ENE,60,4.0,10.0,29,0.00,,,0.00,829.000000,,2013-08-04 22:43:00,
2013-08-04 15:53:00,84.0,48.0,-100.00,ENE,60,4.0,10.0,29,0.00,,,0.00,829.000000,,2013-08-04 22:53:00,
2013-08-04 16:02:00,84.0,48.0,-100.00,ENE,60,4.0,10.0,29,0.00,,,0.00,829.000000,,2013-08-04 23:02:00,
2013-08-04 16:11:00,84.0,48.0,-100.00,ENE,60,4.0,10.0,29,0.00,,,0.00,829.000000,,2013-08-04 23:11:00,
2013-08-04 16:32:00,87.0,47.0,-100.00,NNW,340,4.0,9.0,25,0.00,,,0.00,740.000000,,2013-08-04 23:32:00,
2013-08-04 16:43:00,87.0,47.0,-100.00,NNW,340,4.0,9.0,25,0.00,,,0.00,740.000000,,2013-08-04 23:43:00,
2013-08-04 16:53:00,87.0,47.0,-100.00,NNW,340,4.0,9.0,25,0.00,,,0.00,740.000000,,2013-08-04 23:53:00,
2013-08-04 17:01:00,87.0,47.0,-100.00,NNW,340,4.0,9.0,25,0.00,,,0.00,740.000000,,2013-08-05 00:01:00,
2013-08-04 17:11:00,87.0,47.0,-100.00,NNW,340,4.0,9.0,25,0.00,,,0.00,740.000000,,2013-08-05 00:11:00,
2013-08-04 17:42:00,87.0,49.0,-100.00,NNW,338,3.0,12.0,27,0.00,,,0.00,408.000000,,2013-08-05 00:42:00,
2013-08-04 17:52:00,87.0,49.0,-100.00,NNW,338,3.0,12.0,27,0.00,,,0.00,408.000000,,2013-08-05 00:52:00,
2013-08-04 18:02:00,87.0,49.0,-100.00,NNW,338,3.0,12.0,27,0.00,,,0.00,408.000000,,2013-08-05 01:02:00,
2013-08-04 18:12:00,87.0,49.0,-100.00,NNW,338,3.0,12.0,27,0.00,,,0.00,408.000000,,2013-08-05 01:12:00,
2013-08-04 18:33:00,85.0,54.0,-100.00,North,354,6.0,12.0,35,0.00,,,0.00,123.000000,,2013-08-05 01:33:00,
2013-08-04 18:43:00,85.0,54.0,-100.00,North,354,6.0,12.0,35,0.00,,,0.00,123.000000,,2013-08-05 01:43:00,
2013-08-04 18:52:00,85.0,54.0,-100.00,North,354,6.0,12.0,35,0.00,,,0.00,123.000000,,2013-08-05 01:52:00,
2013-08-04 19:02:00,85.0,54.0,-100.00,North,354,6.0,12.0,35,0.00,,,0.00,123.000000,,2013-08-05 02:02:00,
2013-08-04 19:12:00,85.0,54.0,-100.00,North,354,6.0,12.0,35,0.00,,,0.00,123.000000,,2013-08-05 02:12:00,
2013-08-04 19:33:00,81.0,55.0,-100.00,NW,319,5.0,13.0,41,0.00,,,0.00,163.000000,,2013-08-05 02:33:00,
2013-08-04 19:43:00,81.0,55.0,-100.00,NW,319,5.0,13.0,41,0.00,,,0.00,163.000000,,2013-08-05 02:43:00,
2013-08-04 19:53:00,81.0,55.0,-100.00,NW,319,5.0,13.0,41,0.00,,,0.00,163.000000,,2013-08-05 02:53:00,
2013-08-04 20:02:00,81.0,55.0,-100.00,NW,319,5.0,13.0,41,0.00,,,0.00,163.000000,,2013-08-05 03:02:00,
2013-08-04 20:12:00,81.0,55.0,-100.00,NW,319,5.0,13.0,41,0.00,,,0.00,163.000000,,2013-08-05 03:12:00,
2013-08-04 20:42:00,76.0,52.0,-100.00,NW,314,4.0,12.0,43,0.00,,,0.00,54.000000,,2013-08-05 03:42:00,
2013-08-04 20:53:00,76.0,52.0,-100.00,NW,314,4.0,12.0,43,0.00,,,0.00,54.000000,,2013-08-05 03:53:00,
2013-08-04 21:02:00,76.0,52.0,-100.00,NW,314,4.0,12.0,43,0.00,,,0.00,54.000000,,2013-08-05 04:02:00,
2013-08-04 21:12:00,76.0,52.0,-100.00,NW,314,4.0,12.0,43,0.00,,,0.00,54.000000,,2013-08-05 04:12:00,
2013-08-04 21:32:00,73.0,50.0,-100.00,NW,304,5.0,13.0,45,0.00,,,0.00,3.000000,,2013-08-05 04:32:00,
2013-08-04 21:43:00,73.0,50.0,-100.00,NW,304,5.0,13.0,45,0.00,,,0.00,3.000000,,2013-08-05 04:43:00,
2013-08-04 21:52:00,73.0,50.0,-100.00,NW,304,5.0,13.0,45,0.00,,,0.00,3.000000,,2013-08-05 04:52:00,
2013-08-04 22:01:00,73.0,50.0,-100.00,NW,304,5.0,13.0,45,0.00,,,0.00,3.000000,,2013-08-05 05:01:00,
2013-08-04 22:11:00,73.0,50.0,-100.00,NW,304,5.0,13.0,45,0.00,,,0.00,3.000000,,2013-08-05 05:11:00,
2013-08-04 22:43:00,72.0,51.0,-100.00,WNW,291,7.0,16.0,47,0.00,,,0.00,0.000000,,2013-08-05 05:43:00,
2013-08-04 22:53:00,72.0,51.0,-100.00,WNW,291,7.0,16.0,47,0.00,,,0.00,0.000000,,2013-08-05 05:53:00,
2013-08-04 23:02:00,72.0,51.0,-100.00,WNW,291,7.0,16.0,47,0.00,,,0.00,0.000000,,2013-08-05 06:02:00,
2013-08-04 23:11:00,72.0,51.0,-100.00,WNW,291,7.0,16.0,47,0.00,,,0.00,0.000000,,2013-08-05 06:11:00,
2013-08-04 23:42:00,71.0,50.0,-100.00,WNW,295,6.0,14.0,48,0.00,,,0.00,0.000000,,2013-08-05 06:42:00,
2013-08-04 23:52:00,71.0,50.0,-100.00,WNW,295,6.0,14.0,48,0.00,,,0.00,0.000000,,2013-08-05 06:52:00,